Location: Bruges
(43.1333°N, 0.3000°W)
Time: 06:45:48
(UTC+00:00)

Daily predictions for brighter satellites

Satellite Brightness Start Highest point End
(mag) Time Altitude Azimuth Time Altitude Azimuth Time Altitude Azimuth
Envisat 4.0 17:17:45 10° S 17:22:43 54° W 17:27:43 10° NNW
Cosmos 1354 Rocket 4.1 17:19:15 10° SSW 17:24:35 89° WNW 17:29:58 10° NNE
NOAA 11 4.2 17:19:27 10° SSE 17:24:52 64° ENE 17:30:19 10° N
Cosmos 1455 4.1 17:25:34 10° NE 17:26:37 11° ENE 17:27:41 10° E
Cosmos 2058 Rocket 4.2 17:25:08 10° NNE 17:28:47 24° ENE 17:32:27 10° SE
X-37B 2.4 17:27:43 10° SSW 17:30:11 21° SSE 17:32:39 10° E
Cosmos 1300 2.7 17:27:25 10° N 17:31:13 59° E 17:34:58 10° SSE
Landsat 5 4.0 17:32:21 10° N 17:36:14 56° WNW 17:39:59 10° SSW
Lacrosse 5 2.8 17:36:07 10° NW 17:40:31 29° NNE 17:44:55 10° E
ISS -2.5 17:39:27 10° SSW 17:42:22 28° SE 17:45:00 12° E
Cosmos 1943 3.4 17:37:56 10° NNW 17:43:39 81° WSW 17:49:16 10° SSE
Cosmos 1939 Rocket 3.0 17:40:01 10° SSE 17:44:01 52° ENE 17:48:01 10° N
Cosmos 1726 Rocket 3.7 17:40:13 10° N 17:44:29 53° ENE 17:48:47 10° SSE
ERS-2 3.4 17:42:49 10° NE 17:45:44 22° E 17:48:37 10° SSE
Meteor 1-24 Rocket 3.6 17:41:04 10° S 17:46:27 84° E 17:51:46 10° NNE
COSMOS 2455 3.0 17:41:23 10° S 17:47:15 57° ESE 17:53:09 10° NE
CZ-2C R/B 4.4 17:45:49 11° ENE 17:47:15 12° E 17:49:14 10° ESE
IRS-1C Rocket 4.4 17:49:58 10° SE 17:54:56 44° ENE 17:59:54 10° N
CZ-4 R/B 2.2 17:52:53 10° SE 17:56:26 28° ENE 17:59:55 10° N
Cosmos 1315 Rocket 3.3 17:53:05 10° NNW 17:57:01 64° W 18:00:59 10° S
Feng Yun 1-1 Rocket 4.2 17:52:14 10° SSE 17:57:34 64° ENE 18:03:02 10° N
COSMO-SKYMED 1 2.5 17:59:01 10° NNE 18:03:22 65° ESE 18:07:39 10° S
Cosmos 2279 Rocket 4.1 17:58:09 10° N 18:04:27 88° W 18:10:42 10° S
USA 267 4.4 18:04:12 15° E 18:07:50 23° ESE 18:12:50 10° S
CZ-4 R/B 4.4 18:05:44 10° SSE 18:09:47 59° ENE 18:13:53 10° N
Okean-O 3.0 18:08:23 10° SE 18:12:31 40° ENE 18:16:40 10° N
CZ-4B R/B 1.5 18:10:05 10° N 18:13:28 75° WNW 18:16:45 10° SSW
CZ-2C R/B 3.1 18:08:44 10° SSE 18:13:56 69° ENE 18:19:27 10° N
Cosmos 1844 Rocket 2.8 18:08:52 10° S 18:14:21 53° ESE 18:19:24 12° NE
Okean O Rocket 3.2 18:11:17 10° SSW 18:15:27 39° W 18:19:38 10° NNW
OE (NEXTSAT) 4.4 18:12:44 10° W 18:16:10 70° NNW 18:17:46 29° ENE
H-2A R/B 2.3 18:11:50 10° SE 18:16:29 41° ENE 18:21:15 10° N
Meteor 1-21 Rocket 4.5 18:12:09 10° SSE 18:17:20 44° E 18:22:34 10° NNE
ATLAS 2AS CENTAUR R/B 4.5 18:11:04 10° W 18:17:47 29° NNW 18:24:23 10° NNE
Aureole 2 Rocket 1.9 18:14:55 10° S 18:17:51 67° ESE 18:19:28 25° NNE
Cosmos 1689 Rocket 2.4 18:20:01 37° E 18:20:11 37° E 18:22:51 10° S
Cosmos 158 Rocket 4.4 18:17:38 10° N 18:22:42 43° ENE 18:27:49 10° SE
Cosmos 1898 Rocket 4.5 18:18:43 10° SSE 18:22:57 25° E 18:23:42 24° E
Cosmos 1680 Rocket 4.2 18:19:56 10° N 18:24:36 31° ENE 18:26:36 24° E
CZ-2D R/B 3.6 18:26:11 10° S 18:30:02 68° W 18:33:53 10° NNW
Cosmos 1602 Rocket 4.1 18:27:01 10° SSE 18:30:56 34° E 18:31:34 33° ENE
Cosmos 1818 3.5 18:25:47 10° SSW 18:31:11 75° ESE 18:34:52 21° NE
TELKOM 3 3.4 18:29:49 10° WSW 18:32:09 52° NNW 18:32:11 52° NNW
SAR-Lupe-4 3.4 18:31:28 22° NNE 18:33:37 69° ESE 18:37:10 10° S
Meteor 2-10 Rocket 3.8 18:28:52 10° NNW 18:34:23 76° W 18:39:38 10° S
YAOGAN 1 2.5 18:30:08 10° SSE 18:34:24 64° ENE 18:38:42 10° N
H-2A R/B 4.4 18:32:02 10° NNW 18:35:31 23° WNW 18:38:57 10° WSW
Cosmos 1892 Rocket 4.5 18:31:35 10° SSW 18:35:47 48° WNW 18:40:01 10° N
Cosmos 489 Rocket 4.4 18:30:09 10° NNW 18:36:31 67° ENE 18:42:48 10° SSE
CSL-04 Rocket 3.9 18:33:13 10° SE 18:38:20 46° ENE 18:43:31 10° N
Helios 1A Rocket 2.9 18:35:18 10° SSE 18:39:20 57° ENE 18:43:25 10° N
USA 234 4.2 18:40:19 24° NE 18:42:50 31° NNE 18:48:25 10° NW
Cosmos 1092 Rocket 3.9 18:38:16 10° S 18:44:21 60° E 18:50:23 10° NNE
ATLAS 5 CENTAUR R/B 3.8 18:41:29 10° WNW 18:44:23 18° NNW 18:47:32 10° N
SAR-Lupe-1 4.0 18:42:35 26° NNE 18:44:30 87° WNW 18:48:03 10° SSW
MOS 1 Rocket 3.7 18:43:18 10° N 18:47:33 56° WNW 18:51:43 10° SSW
Iridium 4 Rocket 3.7 18:42:08 10° N 18:47:39 50° E 18:52:44 10° SSE
Meteor 2-1 Rocket 4.1 18:43:11 10° N 18:48:47 90° W 18:54:18 10° S
Cosmos 1812 Rocket 4.5 18:46:18 10° N 18:48:54 31° NNE 18:48:54 31° NNE
SJ 16-02 1.5 18:48:54 10° SSW 18:53:18 71° WNW 18:55:59 23° N
SJ-11-01 4.1 18:48:50 10° SSE 18:53:32 84° ENE 18:58:15 10° NNW
Cosmos 1937 Rocket 4.4 18:53:14 10° SSE 18:56:46 32° SE 18:56:46 32° SE
Aureole 3 3.2 18:54:48 10° NNW 18:58:14 60° W 19:01:13 10° S
Nadezhda 4 Rocket 4.4 18:55:33 10° SSW 19:01:45 63° W 19:07:55 10° N
Cosmos 2112 Rocket 4.0 18:57:04 10° NNW 19:02:13 54° ENE 19:02:18 54° ENE
Cosmos 1455 2.9 18:58:51 10° NNW 19:02:35 54° W 19:06:18 10° S
X-37B 1.9 19:03:19 10° WSW 19:05:31 41° WSW 19:05:31 41° WSW
Cosmos 1703 3.2 19:03:11 10° S 19:07:02 79° W 19:07:02 79° W
Cosmos 1340 4.4 19:04:24 10° S 19:05:50 22° S 19:05:50 22° S
COSMOS 2406 4.4 19:11:31 10° N 19:14:49 28° NNE 19:14:49 28° NNE
ARGOS 3.2 19:11:38 10° S 19:16:59 80° WSW 19:22:23 10° NNW
ISS -1.9 19:15:49 10° W 19:17:58 31° WNW 19:17:58 31° WNW
Cosmos 44 3.2 19:14:23 10° SSW 19:18:46 75° S 19:18:46 75° S
ERS-2 4.3 19:16:37 12° NNW 19:19:11 24° WNW 19:22:09 10° WSW
Lacrosse 5 1.9 19:18:52 10° NW 19:23:55 73° SW 19:24:15 70° SSW
CSL-04 Debris 4.5 19:21:58 10° S 19:27:18 64° WSW 19:32:40 10° NNW
CZ-2C R/B 2.6 19:27:19 64° NNE 19:28:14 87° ESE 19:33:51 10° SSW
CZ-4 R/B 3.7 19:28:03 10° SSW 19:31:25 24° W 19:34:44 10° NW
NOSS 3-1 (C) 4.0 19:25:30 10° NNW 19:33:03 70° NE 19:34:39 58° ESE
COSMOS 2455 4.5 19:28:21 10° WSW 19:33:32 29° NW 19:37:13 16° N
Cosmos 990 Rocket 4.3 19:30:42 10° SSW 19:35:52 64° WNW 19:36:25 59° NW
Cosmos 1553 Rocket 4.4 19:31:35 10° N 19:36:13 49° NNE 19:36:13 49° NNE
Cosmos 2026 Rocket 4.1 19:32:43 10° SSW 19:38:46 69° W 19:44:58 10° N
Cosmos 1833 Rocket 4.2 19:34:12 10° NNW 19:36:25 23° N 19:36:25 23° N
Cosmos 2082 Rocket 4.3 19:36:48 10° N 19:37:48 14° N 19:37:48 14° N
Meteor 2-19 Rocket 4.4 19:37:34 10° S 19:43:44 84° W 19:44:22 73° NNW
USA 229 DEB 3.9 19:42:42 10° NNW 19:49:18 63° NNE 19:49:18 63° NNE
USA 229 3.9 19:42:48 10° NNW 19:49:20 62° NNE 19:49:20 62° NNE
USA 267 3.1 19:51:34 84° S 19:51:34 84° S 19:57:58 10° SW
H-2A R/B 4.2 19:52:07 10° SW 19:56:05 24° W 20:00:07 10° NW
NOSS 3-1 (A) 4.2 19:58:04 10° NNW 20:04:26 62° N 20:04:26 62° N
Cosmos 2278 Rocket 4.3 20:01:21 10° SSW 20:02:22 16° SSW 20:02:22 16° SSW
USA 234 4.2 20:27:40 39° NNW 20:27:40 39° NNW 20:31:37 10° NW
